EW5817 Weather Reports


time (UTC)temp
F
wind
direction
speed
knots
gust
knots
rain 1hr
in
rain 24hr
in
rain mn
in
humidity
%
barometer
mb
20260509145839 50 248 7.0 11.3 0.00 0.00 0.00 88 1002.9
20260509145339 50 203 10.4 13.0 0.00 0.00 0.00 88 1002.0
20260509144840 51 180 7.0 13.0 0.00 0.00 0.00 88 1002.0
20260509144409 51 248 10.4 13.9 0.00 0.00 0.00 87 1002.0
20260509143839 51 203 7.8 13.9 0.00 0.00 0.00 86 1002.0
20260509143338 51 270 7.8 12.2 0.00 0.00 0.00 86 1002.0
20260509142338 52 248 7.0 16.5 0.00 0.00 0.00 86 1000.9
20260509141908 52 225 0.0 16.5 0.00 0.00 0.00 85 1000.9
20260509140907 53 158 7.0 19.1 0.00 0.00 0.00 85 1000.9
20260509140337 53 158 11.3 19.1 0.00 0.00 0.00 86 1000.9
20260509135908 53 270 5.2 20.0 0.00 0.00 0.00 86 1000.9
20260509135407 53 270 5.2 20.0 0.00 0.00 0.00 86 1000.0
20260509133406 53 225 6.1 20.0 0.00 0.00 0.00 89 1000.9
20260509132407 52 158 4.3 20.0 0.00 0.00 0.00 90 1000.9
20260509131406 52 225 13.0 20.0 0.00 0.00 0.00 90 1000.9
20260509130906 52 270 7.0 18.2 0.00 0.00 0.00 90 1000.9
20260509130406 52 203 3.5 18.2 0.00 0.00 0.00 92 1000.9
20260509125905 52 203 16.5 20.9 0.00 0.00 0.00 92 1000.9
20260509125335 52 203 11.3 20.9 0.00 0.00 0.00 92 1000.9
20260509124835 51 180 7.0 19.1 0.00 0.00 0.00 92 1000.9
20260509124406 51 203 7.0 19.1 0.00 0.00 0.00 92 1000.9
20260509123406 51 248 6.1 22.6 0.00 0.00 0.00 92 1002.0
20260509122904 51 248 7.8 20.0 0.00 0.00 0.00 92 1002.0
20260509122404 51 225 17.4 20.0 0.00 0.00 0.00 92 1002.0
20260509121834 51 180 10.4 16.5 0.00 0.00 0.00 92 1002.0
20260509121404 51 203 4.3 16.5 0.00 0.00 0.00 92 1002.0
20260509120904 51 203 6.1 15.6 0.00 0.00 0.00 92 1002.0
20260509120404 51 270 7.0 21.7 0.00 0.00 0.00 92 1002.0
20260509115904 51 225 7.0 21.7 0.00 0.00 0.00 92 1002.0
20260509115403 51 248 7.8 16.5 0.00 0.00 0.00 92 1002.0
20260509114433 51 225 7.8 17.4 0.00 0.00 0.00 92 1000.9
20260509113403 51 203 7.8 19.1 0.00 0.00 0.00 92 1000.9
20260509112903 51 203 10.4 19.1 0.00 0.00 0.00 92 1000.9
20260509110433 51 248 5.2 20.9 0.00 0.00 0.00 93 1000.0
20260509105902 51 225 14.8 22.6 0.00 0.00 0.00 92 1000.0
20260509104401 51 203 12.2 15.6 0.00 0.00 0.00 93 1000.0
20260509103401 51 248 11.3 19.1 0.00 0.00 0.00 92 1000.9
20260509102901 51 248 8.7 19.1 0.00 0.00 0.00 92 1000.9
20260509102401 51 203 2.6 19.1 0.00 0.00 0.00 92 1000.9
20260509101901 51 135 9.6 19.1 0.00 0.00 0.00 92 1000.9
20260509101401 51 203 17.4 19.1 0.00 0.00 0.00 92 1000.9
20260509100401 51 180 4.3 19.1 0.00 0.00 0.00 92 1000.9
20260509095900 52 203 7.8 19.1 0.00 0.00 0.00 92 1000.9
20260509095400 52 158 16.5 19.1 0.00 0.00 0.00 92 1000.9
20260509094400 52 203 12.2 20.0 0.00 0.00 0.00 91 1000.9
20260509093900 52 203 10.4 24.3 0.00 0.00 0.00 91 1000.9
20260509092859 52 203 12.2 20.0 0.00 0.00 0.00 92 1000.9
20260509092400 52 180 9.6 19.1 0.00 0.00 0.00 93 1002.0
20260509091900 52 90 10.4 17.4 0.00 0.00 0.00 93 1002.0
20260509091359 52 203 7.0 17.4 0.00 0.00 0.00 93 1002.0
20260509090858 52 180 7.0 16.5 0.00 0.00 0.00 92 1002.0
20260509090359 52 203 7.0 16.5 0.00 0.00 0.00 92 1002.0
20260509085858 52 158 2.6 17.4 0.00 0.00 0.00 91 1002.0
20260509085358 52 203 10.4 17.4 0.00 0.00 0.00 91 1002.0
20260509084858 52 270 3.5 17.4 0.00 0.00 0.00 90 1002.0
20260509084358 52 158 3.5 14.8 0.00 0.00 0.00 89 1002.0
20260509083928 52 248 7.8 14.8 0.00 0.00 0.00 88 1002.0
20260509083357 53 203 13.0 13.9 0.00 0.00 0.00 88 1002.0
20260509082357 53 203 8.7 18.2 0.00 0.00 0.00 86 1002.0
20260509081358 53 180 7.0 16.5 0.00 0.00 0.00 87 1002.0
20260509080857 53 248 2.6 13.9 0.00 0.00 0.00 86 1002.0
20260509075856 53 225 6.1 17.4 0.00 0.00 0.00 87 1002.0
20260509074856 53 203 7.0 13.9 0.00 0.00 0.00 86 1002.0
20260509074357 53 203 12.2 13.0 0.00 0.00 0.00 86 1002.0
20260509073856 53 248 3.5 20.0 0.00 0.00 0.00 85 1002.0
20260509073357 53 225 5.2 20.0 0.00 0.00 0.00 85 1002.0
20260509072926 53 203 16.5 18.2 0.00 0.00 0.00 84 1002.0
20260509071856 53 203 2.6 15.6 0.00 0.00 0.00 85 1002.9
20260509071355 53 203 7.0 13.0 0.00 0.00 0.00 84 1002.9
20260509070855 53 158 2.6 16.5 0.00 0.00 0.00 83 1002.9
20260509065855 54 203 12.2 17.4 0.00 0.00 0.00 81 1002.9
20260509065355 54 180 4.3 20.0 0.00 0.00 0.00 79 1002.9
20260509064855 55 270 6.1 20.0 0.00 0.00 0.00 78 1002.9
20260509064354 55 158 5.2 17.4 0.00 0.00 0.00 76 1002.9
20260509063354 56 180 4.3 21.7 0.00 0.00 0.00 72 1002.9
20260509062854 56 135 8.7 18.2 0.00 0.00 0.00 72 1002.9
20260509062354 56 158 10.4 18.2 0.00 0.00 0.00 67 1002.9
20260509061854 57 248 12.2 17.4 0.00 0.00 0.00 65 1002.9
20260509061353 57 158 4.3 17.4 0.00 0.00 0.00 59 1002.9
20260509060853 57 203 14.8 17.4 0.00 0.00 0.00 56 1004.0
20260509060353 57 225 4.3 20.9 0.00 0.00 0.00 48 1004.0
20260509055853 57 113 6.1 20.9 0.00 0.00 0.00 48 1004.0
20260509055353 57 158 8.7 19.1 0.00 0.00 0.00 47 1004.0
20260509054853 57 203 11.3 19.1 0.00 0.00 0.00 46 1004.0
20260509053852 56 360 9.6 16.5 0.00 0.00 0.00 45 1004.0
20260509053352 56 113 0.0 16.5 0.00 0.00 0.00 45 1004.0
20260509052852 55 203 4.3 13.9 0.00 0.00 0.00 45 1004.0
20260509052352 55 158 4.3 7.8 0.00 0.00 0.00 45 1004.0
20260509051852 55 135 0.0 10.4 0.00 0.00 0.00 45 1004.0
20260509051352 54 158 4.3 10.4 0.00 0.00 0.00 44 1004.0
20260509050351 53 113 3.5 7.0 0.00 0.00 0.00 46 1004.0
20260509045351 52 158 4.3 7.8 0.00 0.00 0.00 46 1004.0
20260509044851 51 158 4.3 7.0 0.00 0.00 0.00 46 1004.0
20260509044351 51 158 0.0 6.1 0.00 0.00 0.00 46 1004.0
20260509043851 50 180 6.1 6.1 0.00 0.00 0.00 46 1004.0
20260509043351 50 158 4.3 5.2 0.00 0.00 0.00 46 1004.0
20260509042951 50 113 0.0 5.2 0.00 0.00 0.00 47 1004.0
20260509042350 50 158 2.6 4.3 0.00 0.00 0.00 46 1004.9
20260509041850 50 113 0.0 5.2 0.00 0.00 0.00 45 1004.9
20260509040851 50 180 2.6 4.3 0.00 0.00 0.00 44 1004.0
20260509040350 50 158 0.0 4.3 0.00 0.00 0.00 45 1004.0
20260509035349 49 158 4.3 5.2 0.00 0.00 0.00 42 1004.0
20260509034849 49 158 1.7 5.2 0.00 0.00 0.00 41 1004.0
20260509034349 49 113 4.3 5.2 0.00 0.00 0.00 43 1004.0
20260509033849 49 113 2.6 3.5 0.00 0.00 0.00 40 1004.0
20260509033349 49 158 0.0 3.5 0.00 0.00 0.00 40 1004.0
20260509032848 49 135 0.0 4.3 0.00 0.00 0.00 39 1004.0
20260509032348 49 180 0.0 4.3 0.00 0.00 0.00 39 1004.9
20260509031848 49 158 0.0 4.3 0.00 0.00 0.00 39 1004.9
20260509031348 49 158 1.7 5.2 0.00 0.00 0.00 39 1004.9
20260509030848 49 180 1.7 5.2 0.00 0.00 0.00 38 1004.9
20260509030348 49 135 0.0 0.0 0.00 0.00 0.00 38 1004.9
20260509025848 49 113 0.0 0.0 0.00 0.00 0.00 38 1004.9
20260509025348 50 113 0.0 0.0 0.00 0.00 0.00 38 1004.9
20260509024347 50 158 0.0 4.3 0.00 0.00 0.00 37 1004.9
20260509023847 50 158 0.0 4.3 0.00 0.00 0.00 37 1004.9
20260509023417 50 135 0.0 3.5 0.00 0.00 0.00 37 1004.9
20260509021846 50 158 0.0 0.0 0.00 0.00 0.00 37 1004.9
20260509021347 50 113 0.0 0.0 0.00 0.00 0.00 37 1004.9
20260509020846 50 113 0.0 0.9 0.00 0.00 0.00 36 1006.0
20260509020346 50 180 0.0 2.6 0.00 0.00 0.00 36 1006.0
20260509015846 50 203 0.0 2.6 0.00 0.00 0.00 34 1006.0
20260509015346 51 203 1.7 1.7 0.00 0.00 0.00 34 1006.0
20260509014846 51 180 0.0 1.7 0.00 0.00 0.00 33 1006.0
20260509013845 52 180 0.0 0.0 0.00 0.00 0.00 32 1006.0
20260509013345 52 180 0.0 1.7 0.00 0.00 0.00 29 1006.0
20260509012846 53 158 0.0 1.7 0.00 0.00 0.00 29 1006.0
20260509012345 53 180 0.0 0.0 0.00 0.00 0.00 29 1004.9
20260509010844 54 180 0.0 1.7 0.00 0.00 0.00 27 1004.9
20260509005844 56 180 0.0 0.0 0.00 0.00 0.00 26 1004.9
20260509004714 58 203 0.0 4.3 0.00 0.00 0.00 25 1004.9
20260509003344 58 203 0.0 4.3 0.00 0.00 0.00 25 1004.9
20260509002843 58 203 0.0 5.2 0.00 0.00 0.00 24 1004.9
20260509001844 59 203 0.0 5.2 0.00 0.00 0.00 22 1006.0
20260509001343 59 180 0.0 5.2 0.00 0.00 0.00 22 1006.0
20260509000843 59 203 0.0 6.1 0.00 0.00 0.00 24 1006.0
20260509000342 59 203 0.0 6.1 0.00 0.00 0.00 22 1006.0
20260508234842 60 180 1.7 9.6 0.00 0.00 0.00 17 1006.0
20260508234342 60 158 4.3 9.6 0.00 0.00 0.00 19 1006.0
20260508233842 60 225 3.5 7.8 0.00 0.00 0.00 22 1006.0
20260508233342 60 113 2.6 9.6 0.00 0.00 0.00 25 1006.0
20260508232842 61 180 1.7 13.0 0.00 0.00 0.00 24 1006.0
20260508231841 61 158 2.6 8.7 0.00 0.00 0.00 24 1006.0
20260508231341 61 158 3.5 8.7 0.00 0.00 0.00 25 1006.0
20260508230842 61 158 2.6 7.8 0.00 0.00 0.00 25 1006.0
20260508225411 61 180 2.6 13.0 0.00 0.00 0.00 24 1004.9
20260508224840 61 158 7.8 13.0 0.00 0.00 0.00 24 1004.9
20260508224340 61 203 7.8 9.6 0.00 0.00 0.00 25 1004.9
20260508223340 61 180 5.2 10.4 0.00 0.00 0.00 25 1006.0
20260508222840 60 203 7.0 11.3 0.00 0.00 0.00 26 1006.0
20260508221939 60 180 7.0 13.9 0.00 0.00 0.00 25 1006.0
20260508221339 61 248 4.3 11.3 0.00 0.00 0.00 26 1006.0
20260508220839 61 225 5.2 11.3 0.00 0.00 0.00 26 1006.9
20260508220339 61 225 4.3 13.0 0.00 0.00 0.00 27 1006.9
20260508214840 61 248 1.7 15.6 0.00 0.00 0.00 29 1006.9
20260508214339 62 203 4.3 15.6 0.00 0.00 0.00 28 1006.9
20260508213338 61 180 4.3 13.9 0.00 0.00 0.00 31 1006.9
20260508212838 61 225 6.1 16.5 0.00 0.00 0.00 29 1006.9
20260508211838 62 225 7.0 13.0 0.00 0.00 0.00 31 1006.9
20260508211338 63 203 2.6 13.0 0.00 0.00 0.00 34 1006.9
20260508210407 63 225 4.3 11.3 0.00 0.00 0.00 34 1006.9
20260508204907 62 225 4.3 8.7 0.00 0.00 0.00 35 1006.9
20260508204336 62 248 3.5 8.7 0.00 0.00 0.00 35 1006.9
20260508203907 62 248 1.7 10.4 0.00 0.00 0.00 36 1008.0
20260508203407 62 225 6.1 10.4 0.00 0.00 0.00 36 1008.0
20260508202407 62 225 7.8 13.0 0.00 0.00 0.00 38 1008.0
20260508201906 61 203 7.0 13.0 0.00 0.00 0.00 38 1008.0
20260508201406 61 270 7.8 17.4 0.00 0.00 0.00 38 1008.0
20260508200905 61 248 8.7 17.4 0.00 0.00 0.00 37 1008.0
20260508200406 61 270 4.3 16.5 0.00 0.00 0.00 39 1008.0
20260508195905 62 203 7.8 16.5 0.00 0.00 0.00 38 1008.0
20260508195405 62 203 6.1 13.0 0.00 0.00 0.00 40 1009.0
20260508194905 61 203 5.2 13.9 0.00 0.00 0.00 39 1009.0
20260508192904 61 203 7.0 13.9 0.00 0.00 0.00 41 1008.0
20260508192405 61 225 3.5 13.0 0.00 0.00 0.00 42 1008.0
20260508191934 60 203 8.7 13.0 0.00 0.00 0.00 39 1008.0
20260508191404 60 180 7.0 12.2 0.00 0.00 0.00 40 1008.0
20260508190905 60 225 9.6 10.4 0.00 0.00 0.00 42 1008.0
20260508185403 59 225 8.7 11.3 0.00 0.00 0.00 42 1008.0
20260508184903 59 293 3.5 12.2 0.00 0.00 0.00 43 1008.0
20260508184403 59 203 4.3 12.2 0.00 0.00 0.00 43 1008.0
20260508182903 59 203 9.6 13.0 0.00 0.00 0.00 38 1006.9
20260508182403 59 225 8.7 10.4 0.00 0.00 0.00 38 1008.0
20260508181902 59 248 8.7 10.4 0.00 0.00 0.00 38 1008.0
20260508181403 59 293 9.6 10.4 0.00 0.00 0.00 38 1008.0
20260508180902 59 203 6.1 10.4 0.00 0.00 0.00 38 1008.0
20260508180402 59 248 5.2 11.3 0.00 0.00 0.00 37 1009.0
20260508175902 59 248 5.2 13.0 0.00 0.00 0.00 37 1009.0
20260508175402 59 248 9.6 13.0 0.00 0.00 0.00 36 1009.0
20260508174401 60 225 7.8 10.4 0.00 0.00 0.00 37 1009.0
20260508173901 59 248 8.7 12.2 0.00 0.00 0.00 37 1009.0
20260508173401 60 248 5.2 12.2 0.00 0.00 0.00 37 1009.0
20260508172901 60 248 10.4 13.0 0.00 0.00 0.00 36 1009.0
20260508172400 60 203 3.5 13.0 0.00 0.00 0.00 36 1009.0
20260508171431 59 203 4.3 13.0 0.00 0.00 0.00 36 1009.0
20260508170900 59 180 11.3 13.0 0.00 0.00 0.00 37 1010.0
20260508170401 59 248 6.1 10.4 0.00 0.00 0.00 39 1010.0
20260508163930 58 203 4.3 10.4 0.00 0.00 0.00 44 1010.0
20260508163400 59 203 0.0 10.4 0.00 0.00 0.00 45 1010.0
20260508162859 58 225 4.3 16.5 0.00 0.00 0.00 45 1010.0
20260508162429 58 180 7.0 16.5 0.00 0.00 0.00 46 1010.0
20260508161359 58 248 4.3 11.3 0.00 0.00 0.00 48 1010.0
20260508160858 58 225 4.3 11.3 0.00 0.00 0.00 47 1010.0
20260508154858 58 180 0.0 13.9 0.00 0.00 0.00 50 1010.0
20260508154358 57 248 7.0 13.9 0.00 0.00 0.00 52 1010.0
20260508153858 57 248 0.0 11.3 0.00 0.00 0.00 54 1010.0
20260508153357 56 203 0.0 12.2 0.00 0.00 0.00 55 1010.0
20260508152857 55 203 8.7 12.2 0.00 0.00 0.00 60 1010.0
20260508152357 55 203 2.6 12.2 0.00 0.00 0.00 63 1009.0
20260508151358 54 203 4.3 13.0 0.00 0.00 0.00 68 1009.0